Location: Alpha Ridge Park
(39.3209°N, 76.9128°W)
Time: 02:46:37
(UTC-04:00)

BEESAT - Pass Details

Date: 08 July 2022
Orbit: 700 x 706 km, 98.6° (Epoch: 14 August)

Event Time Altitude Azimuth Distance (km) Brightness Sun altitude
Rises 21:20:31 0° 16° (NNE) 3,105 ? -7.9°
Reaches altitude 10° 21:22:48 10° 19° (NNE) 2,182 ? -8.2°
Maximum altitude 21:27:33 66° 102° (ESE) 771 ? -8.9°
Drops below altitude 10° 21:32:17 10° 185° (S) 2,169 ? -9.6°
Sets 21:34:33 0° 188° (S) 3,083 ? -10.0°
